Location: Torre
(46.4863°N, 8.9533°E)
Time: 13:29:48
(UTC+00:00)

Daily predictions for brighter satellites

Satellite Brightness Start Highest point End
(mag) Time Altitude Azimuth Time Altitude Azimuth Time Altitude Azimuth
Cosmos 1315 Rocket 3.2 16:06:32 10° SSE 16:10:16 42° E 16:14:05 10° NNE
STARLINK-67 2.7 16:08:22 10° SW 16:11:07 65° SE 16:13:52 10° ENE
ATLAS 2AS CENTAUR R/B 3.2 16:05:19 10° SW 16:13:18 88° SE 16:21:22 10° NE
CZ-4B R/B 3.4 16:08:16 10° S 16:13:34 76° WSW 16:18:59 10° NNW
YAOGAN 6 4.5 16:12:36 10° ENE 16:13:36 11° ENE 16:14:36 10° NE
IRS-1C Rocket 4.3 16:09:42 10° SE 16:14:47 52° ENE 16:19:55 10° N
Cosmos 1346 Rocket 2.9 16:11:13 10° N 16:15:07 55° ENE 16:19:01 10° SSE
Cosmos 2322 3.8 16:10:27 10° SSW 16:16:05 65° ESE 16:21:45 10° NNE
COSMO-SKYMED 1 4.4 16:17:35 10° ENE 16:19:42 13° E 16:21:47 10° ESE
Cosmos 1302 Rocket 4.1 16:15:59 10° NNW 16:21:11 54° ENE 16:26:19 10° SE
Cosmos 1400 Rocket 3.7 16:18:19 10° SSW 16:22:21 53° WNW 16:26:22 10° N
Shenzhou-11 Module 3.7 16:22:33 10° SW 16:24:44 21° SSE 16:26:56 10° ESE
Cosmos 1606 4.3 16:21:17 10° SW 16:24:47 36° WNW 16:28:19 10° N
Cosmos 2278 Rocket 2.8 16:21:36 10° NNW 16:26:45 34° NE 16:31:51 10° ESE
STARLINK-46 4.4 16:24:58 10° S 16:27:05 20° SE 16:29:01 11° E
OPS 6432 4.5 16:25:18 10° NW 16:28:32 66° NE 16:32:39 10° SE
SMAP 3.1 16:25:08 10° SSE 16:29:42 59° ENE 16:34:18 10° N
YAOGAN 1 4.1 16:28:40 10° E 16:31:07 15° ENE 16:33:33 10° NNE
Cosmos 1666 4.4 16:32:01 10° NE 16:33:53 13° ENE 16:35:45 10° E
Cosmos 2360 Rocket 2.8 16:29:18 10° SW 16:34:52 58° WNW 16:40:30 10° NNE
SeaSat 1 4.3 16:34:20 11° NE 16:35:27 11° NE 16:36:55 10° NNE
Meteor 1-11 Rocket 4.1 16:30:43 10° N 16:36:27 45° ENE 16:42:08 10° SE
ALOS 4.1 16:32:20 10° SSW 16:36:36 36° W 16:40:56 10° NNW
RESURS DK-1 3.0 16:35:32 10° S 16:39:18 36° ESE 16:42:29 14° NE
Cosmos 2333 Rocket 2.3 16:36:27 10° S 16:42:05 62° ESE 16:47:48 10° NNE
Cosmos 304 Rocket 3.7 16:37:53 10° NNW 16:42:43 77° ENE 16:47:32 10° SSE
Meteor 1-27 Rocket 4.3 16:38:53 10° SSE 16:44:05 38° E 16:49:26 10° NNE
Cosmos 332 Rocket 4.5 16:39:55 10° NNW 16:44:43 59° WSW 16:49:27 10° S
Cosmos 1733 Rocket 3.2 16:42:01 10° N 16:46:17 51° ENE 16:50:34 10° SSE
USA 215 3.7 16:41:19 11° NE 16:47:24 53° NNW 16:53:42 10° W
Cosmos 2180 Rocket 4.5 16:43:01 10° N 16:49:18 78° E 16:55:37 10° SSE
CENTAUR R/B 3.9 16:42:07 10° NW 16:50:03 60° WSW 16:58:33 10° SSE
ERBS 2.5 16:47:06 10° NW 16:50:26 72° SW 16:53:46 10° SE
Envisat 3.1 16:47:07 10° SE 16:52:01 51° ENE 16:56:57 10° N
NOSS 2 (A) 4.2 16:49:46 10° NNW 16:52:13 46° NE 16:53:26 22° ESE
Cosmos 2237 Rocket 3.0 16:49:38 10° SSE 16:54:31 30° ESE 16:57:53 17° NE
Feng Yun 1-1 Rocket 4.3 16:50:44 10° SSE 16:56:08 80° WSW 17:01:34 10° NNW
Cosmos 1812 2.9 16:55:15 10° S 16:58:58 49° E 17:02:32 11° NNE
Cosmos 2322 Rocket 4.1 16:54:42 10° W 16:59:11 24° NW 17:03:41 10° N
Exosat Rocket 3.8 16:54:36 10° S 16:59:55 51° ESE 17:03:51 15° NE
SL-16 R/B 4.3 17:00:31 10° W 17:04:39 20° NW 17:08:48 10° N
Cosmos 1092 Rocket 4.4 17:01:28 10° SSE 17:07:17 40° E 17:13:04 10° NNE
SKYMED 2 4.0 17:05:22 17° NE 17:08:15 39° E 17:12:19 10° SSE
Cosmos 1992 Rocket 4.1 17:03:07 10° NNW 17:08:15 54° ENE 17:13:22 10° SE
Okean O Rocket 4.4 17:05:25 10° SW 17:08:42 21° W 17:12:01 10° NW
Cosmos 1536 3.0 17:05:17 10° N 17:09:12 48° ENE 17:13:05 10° SSE
CZ-4 R/B 1.7 17:06:01 10° SE 17:09:39 37° ENE 17:13:15 10° N
Cosmos 2219 Rocket 2.3 17:07:31 10° SSW 17:13:07 80° WNW 17:18:26 12° NNE
Cosmos 2242 Rocket 3.9 17:09:33 10° SSE 17:13:53 46° E 17:17:13 17° NNE
NOSS 0 Rocket 4.0 17:10:37 10° S 17:16:40 58° ESE 17:21:06 19° NE
Okean-O 2.7 17:14:42 10° S 17:19:08 80° WSW 17:23:36 10° NNW
NOAA 12 4.3 17:15:46 10° S 17:21:04 77° WSW 17:26:24 10° NNW
Cosmos 1862 Rocket 3.4 17:17:31 10° S 17:21:51 87° E 17:26:16 10° N
Cosmos 1703 Rocket 4.2 17:20:15 10° SSE 17:24:16 34° E 17:24:19 34° E
Cosmos 1980 3.8 17:18:53 10° S 17:24:22 55° ESE 17:27:28 26° NE
Cosmos 1500 3.4 17:21:11 10° NNW 17:24:57 69° W 17:28:40 10° S
Lacrosse 5 rocket 1.4 17:21:29 10° SW 17:25:43 62° SE 17:26:52 42° ENE
Cosmos 2297 4.4 17:20:43 10° NNW 17:25:50 32° NE 17:26:43 31° ENE
NOSS 3-4 (A) 4.1 17:20:47 10° WSW 17:26:38 49° NW 17:31:33 17° NNE
NOSS 3-4 (C) 4.1 17:20:53 10° WSW 17:26:45 50° NW 17:31:39 17° NNE
BREEZE-M DEB (TANK) 1.9 17:21:45 10° WNW 17:26:50 82° SSW 17:27:30 49° ESE
H-2A R/B 4.5 17:24:12 10° SSW 17:27:36 33° W 17:31:00 10° NNW
ATLAS 3B R/B 4.0 17:22:34 10° NW 17:28:46 40° WSW 17:35:06 10° S
ISS -3.9 17:26:32 10° WNW 17:29:53 75° NNE 17:30:12 67° ENE
CZ-4 R/B 4.3 17:26:11 10° SSE 17:30:20 72° ENE 17:34:30 10° N
COSMOS 2428 3.2 17:29:03 10° SW 17:34:38 58° WNW 17:39:28 14° NNE
Ariane Rocket 4.4 17:37:34 21° NNE 17:37:34 21° NNE 17:39:38 10° N
Cosmos 1943 Rocket 3.9 17:32:25 10° N 17:34:39 16° NNE 17:34:39 16° NNE
SL-4 R/B 2.0 17:32:22 10° WSW 17:36:10 69° NNW 17:36:58 52° NE
CSL-04 Rocket 3.5 17:33:21 10° SSE 17:38:33 64° ENE 17:43:47 10° N
FengYun 1-2 T 4.3 17:40:37 10° S 17:46:06 76° WSW 17:51:37 10° NNW
Cosmos 1900 4.1 17:41:27 10° NNW 17:46:22 76° NE 17:48:10 39° SE
YAOGAN 6 3.0 17:43:07 10° S 17:46:36 62° W 17:50:08 10° NNW
Nadezhda 4 Rocket 4.3 17:42:36 10° SSW 17:48:54 68° W 17:55:14 10° N
CSL-04 Debris 4.0 17:44:01 10° SSE 17:49:29 80° ENE 17:54:57 10° NNW
Cosmos 1553 Rocket 4.2 17:45:44 10° N 17:51:47 44° ENE 17:52:39 42° E
Cosmos 1428 Rocket 4.4 17:50:05 10° S 17:56:05 58° E 17:59:07 30° NNE
COSMO-SKYMED 1 2.8 17:53:53 25° N 17:56:19 67° WNW 18:00:36 10° SSW
Cosmos 1908 Rocket 3.7 17:51:59 10° NNW 17:56:24 75° W 18:00:45 10° S
Shenzhou-11 Module 4.3 17:57:00 10° WSW 17:58:10 20° SW 17:58:10 20° SW
ATLAS 2AS CENTAUR R/B 4.2 17:58:03 10° W 18:05:17 35° NNW 18:10:07 19° NNE
Cosmos 2251 Rocket 4.2 18:00:52 10° SW 18:06:04 54° WNW 18:09:04 24° N
YAOGAN 1 2.8 18:02:24 10° S 18:06:42 67° WSW 18:11:01 10° NNW
NOAA 11 4.0 18:02:23 10° SSE 18:07:50 85° ENE 18:13:20 10° NNW
Cosmos 1666 3.5 18:06:10 10° NNW 18:09:48 49° W 18:13:25 10° S
Cosmos 2278 Rocket 3.3 18:05:36 10° NW 18:10:58 44° WSW 18:16:17 10° S
BREEZE-M R/B 3.9 18:06:51 10° WNW 18:10:05 36° NW 18:10:05 36° NW
Cosmos 2026 Rocket 3.8 18:05:43 10° S 18:11:47 86° E 18:15:47 23° N
SeaSat 1 3.7 18:14:08 28° N 18:14:08 28° N 18:16:40 10° NNW
RESURS DK-1 4.2 18:13:56 10° WSW 18:17:25 26° NW 18:18:24 23° NNW
SL-16 R/B 2.9 18:19:07 10° S 18:22:47 39° S 18:22:47 39° S
Cosmos 2333 Rocket 4.0 18:22:01 10° WSW 18:26:49 27° NW 18:30:14 16° N
Cosmos 2369 Rocket 4.1 18:22:23 10° N 18:23:52 17° N 18:23:52 17° N
USA 215 4.1 18:28:40 34° NNE 18:29:40 36° N 18:35:29 10° WNW
Okean 1-7 4.3 18:25:37 10° SSW 18:28:17 35° SW 18:28:17 35° SW
Cosmos 2237 Rocket 3.0 18:32:53 10° SW 18:38:22 47° WNW 18:39:45 39° NNW
CZ-4 R/B 4.0 18:41:59 10° SW 18:44:49 19° W 18:47:38 10° NW
Cosmos 2219 Rocket 4.4 18:54:19 10° W 18:58:02 18° NW 19:00:10 15° NNW
Lacrosse 5 rocket 4.1 19:01:24 10° W 19:02:32 16° WNW 19:02:32 16° WNW
Cosmos 1943 Rocket 4.5 19:15:10 10° NNW 19:16:10 16° NNW 19:16:10 16° NNW
